This is the latest recevied weather packets stored in our database for station/object KF7SOJ. If no packets are shown the sender has not sent any weather packets the latest 10 day(s).
| Time | Temp. | Humidity | Pressure | Rain* | Wind** | Luminosity | Snow |
|---|---|---|---|---|---|---|---|
| 1777756778 | 20.56° C | 31% | 932.4 hPa | 0 mm | - | 608 W/m² | - |
| 1777756172 | 21.11° C | 30% | 932.5 hPa | 0 mm | - | 853 W/m² | - |
| 1777755868 | 21.11° C | 33% | 932.7 hPa | 0 mm | - | 731 W/m² | - |
| 1777755565 | 20.56° C | 31% | 932.8 hPa | 0 mm | - | 869 W/m² | - |
| 1777755261 | 21.11° C | 31% | 932.6 hPa | 0 mm | - | 610 W/m² | - |
| 1777754959 | 21.11° C | 32% | 932.7 hPa | 0 mm | - | 698 W/m² | - |
| 1777753746 | 21.67° C | 28% | 932.8 hPa | 0 mm | - | 722 W/m² | - |
| 1777753444 | 21.67° C | 28% | 932.8 hPa | 0 mm | - | 973 W/m² | - |
| 1777753142 | 21.67° C | 29% | 932.7 hPa | 0 mm | - | 1020 W/m² | - |
| 1777752534 | 22.22° C | 28% | 933 hPa | 0 mm | - | 1031 W/m² | - |
| 1777752230 | 22.22° C | 26% | 932.8 hPa | 0 mm | - | 896 W/m² | - |
| 1777751928 | 21.67° C | 27% | 932.9 hPa | 0 mm | - | 1012 W/m² | - |
| 1777750714 | 21.11° C | 28% | 933.1 hPa | 0 mm | - | 998 W/m² | - |
| 1777750107 | 21.67° C | 27% | 933.1 hPa | 0 mm | - | 981 W/m² | - |
| 1777749501 | 21.67° C | 28% | 933.3 hPa | 0 mm | - | 969 W/m² | - |
| 1777748896 | 21.11° C | 28% | 933.2 hPa | 0 mm | - | 972 W/m² | - |
| 1777747682 | 21.67° C | 27% | 933.3 hPa | 0 mm | - | 782 W/m² | - |
| 1777747074 | 21.11° C | 26% | 933.6 hPa | 0 mm | - | 902 W/m² | - |
| 1777744044 | 21.67° C | 28% | 933.6 hPa | 0 mm | - | 869 W/m² | - |
| 1777743438 | 21.11° C | 25% | 933.5 hPa | 0 mm | - | 887 W/m² | - |
| 1777742225 | 21.11° C | 25% | 933.5 hPa | 0 mm | - | 856 W/m² | - |
| 1777741012 | 21.11° C | 25% | 933.6 hPa | 0 mm | - | 718 W/m² | - |
| 1777740405 | 20.56° C | 24% | 933.6 hPa | 0 mm | - | 751 W/m² | - |
| 1777739798 | 20° C | 25% | 933.6 hPa | 0 mm | - | 520 W/m² | - |
| 1777739192 | 20° C | 25% | 933.7 hPa | 0 mm | - | 487 W/m² | - |
* Rain latest hour (hover to see other rain measurements)
** Current wind speed in m/s (hover to see current wind gust speed)